Other Surface Observations
Issued by NWS

Home | Current Version | Previous Version | Text Only | Print | Product List | Glossary On
Versions: 1 2 3 4 5 6 7 8 9 10 11 12 13 14 15 16 17 18 19 20 21 22 23 24 25 26 27 28 29 30 31 32 33 34 35 36 37 38 39 40 41 42 43 44 45 46 47 48 49 50
000
SXUS52 KTAE 171818
OSOTAE
OSOTAE
North Florida/South Alabama/Southwest Georgia Weather Roundup
National Weather Service Tallahassee Florida
100 PM EST FRI NOV 17 2017

Note: "fair" indicates few or no clouds below 12,000 feet with no
significant weather and/or obstructions to visibility.

!FLZ017-115-028-034-025-171900
...North Florida...

CITY           SKY/WX    TMP DP  RH WIND       PRES   REMARKS
TALLAHASSEE    SUNNY     71  46  40 VRB3      30.10F
APALACHICOLA   SUNNY     69  56  62 SE9       30.11F
PERRY          NOT AVBL
CROSS CITY     SUNNY     73  48  41 E7        30.15F
JACKSONVILLE   MOSUNNY   73  52  47 NE9       30.11F
$$

!FLZ112-006-005-002-011-171900
...Florida Panhandle...

CITY           SKY/WX    TMP DP  RH WIND       PRES   REMARKS
MARIANNA       SUNNY     71  44  37 CALM      30.11F
BONIFAY        NOT AVBL
PANAMA CITY NW FAIR      72  50  45 CALM      30.09F
TYNDALL AFB    SUNNY     71  52  49 E3        30.10F
TYND DRONE APT FAIR      71  53  53 NE5       30.10F
DE FUNIAK SPR  FAIR      68  49  49 NE3       30.11F
EGLIN AFB      SUNNY     70  51  50 SE6       30.10F
DESTIN         SUNNY     73  52  47 VRB5      30.10F
HURLBURT       SUNNY     70  53  53 S7        30.09F
CRESTVIEW      SUNNY     71  52  50 CALM      30.12F
PENSACOLA      SUNNY     70  53  54 VRB3      30.11F
$$

!ALZ063-066-171900
...South Alabama...

CITY           SKY/WX    TMP DP  RH WIND       PRES   REMARKS
DOTHAN         SUNNY     69  45  41 VRB5      30.15F
OZARK CAIRNS   SUNNY     68  46  45 SE5       30.11F
FT RUCKER HELI   N/A    N/A N/A N/A MISG        N/A
RUCKER HELI 3    N/A     68  46  45 CALM      30.10F
RUCKER HELI 2  FAIR      68  46  45 CALM      30.10F
FLORALA APT    SUNNY     69  48  47 CALM      30.13F
ANDALUSIA      SUNNY     73  47  39 VRB3      30.11F
TROY           SUNNY     67  45  45 NE5       30.12F
EUFALA         FAIR      67  44  43 N3        30.11F
MOBILE         MOSUNNY   73  57  57 VRB5      30.11F
$$

!GAZ120>161-171900
...Southwest and South Central Georgia...

CITY           SKY/WX    TMP DP  RH WIND       PRES   REMARKS
THOMASVILLE    FAIR      70  45  40 E6        30.12F
BAINBRIDGE     SUNNY     72  50  46 SE3       30.12F
MOODY AFB      SUNNY     70  47  44 E7        30.10F
VALDOSTA       SUNNY     69  45  41 E6        30.11F
MOULTRIE       SUNNY     70  43  37 NE6       30.12F
BLAKELY        SUNNY     70  45  40 CALM      30.13F
ALBANY         SUNNY     71  45  39 VRB3      30.14F
TIFTON         FAIR      67  44  43 E3        30.12F
FITZGERALD     FAIR      69  47  46 E7        30.15F
CORDELE        FAIR      73  39  29 SE9       30.14F
AMERICUS       FAIR      66  36  32 S5        30.15F
HOMERVILLE     FAIR      70  46  43 E8        30.13F
$$

!GMZ750-755-770-775-171900
...Coastal and Buoy Obs...

STATION/POSITION TIME  TEMP    WIND        PRES    VSBY  WAVE
                       AIR SEA DIR/SP/G                  HT/PER
                 (UTC) (F)     (DEG/KT/KT) (MB)    (MI)  (FT/S)
KEATON BEACH     1800   66     260/  7/  8 1019.1F
CEDAR KEY        1800   68     240/  2/  4 1019.7F
C TOWER          1800   66      90/  7/  8 1020.0F
APALACHICOLA BUO 1750   69 76   80/  6/  8 1019.1F         2/ 4
PANAMA CITY BUOY 1750   70 77   70/  6/  8 1019.4F         2/ 4
MOBILE BUOY      1800   74 79  120/  4/  8 1019.1
ORANGE BCH AL BU NOT AVBL
$$




USA.gov is the U.S. government's official web portal to all federal, state and local government web resources and services.